Location: Newark
(36.1222°N, 100.9183°E)
Time: 23:58:37
(UTC+00:00)

Envisat - Visible Passes

Search period start: 16 October 2019 00:00
Search period end: 26 October 2019 00:00
Orbit: 764 x 766 km, 98.1° (Epoch: 16 October)

Date Brightness Start Highest point End Pass type
(mag) Time Alt. Az. Time Alt. Az. Time Alt. Az.
16 Oct 3.3 11:36:17 10° S 11:41:19 72° WSW 11:46:25 10° NNW visible
17 Oct 3.2 10:59:47 10° SSE 11:04:38 49° ENE 11:09:32 10° N visible
17 Oct 5.9 12:40:44 10° SW 12:43:53 16° W 12:47:03 10° NW visible
18 Oct 4.5 12:02:11 10° SSW 12:06:53 38° W 12:11:37 10° NNW visible
19 Oct 3.0 11:25:00 10° SSE 11:30:04 89° E 11:35:10 10° NNW visible
20 Oct 5.5 12:28:44 10° SW 12:32:31 21° W 12:36:22 10° NW visible
20 Oct 6.2 23:01:29 10° NE 23:04:37 16° E 23:07:44 10° SE visible
21 Oct 4.0 11:50:41 10° S 11:55:35 50° W 12:00:31 10° NNW visible
22 Oct 2.9 11:13:47 10° SSE 11:18:49 70° ENE 11:23:53 10° N visible
22 Oct 6.2 12:56:49 10° WSW 12:58:17 11° W 12:59:44 10° WNW visible
23 Oct 5.1 12:16:55 10° SSW 12:21:12 27° W 12:25:30 10° NW visible
23 Oct 6.5 22:51:11 10° ENE 22:53:15 12° E 22:55:18 10° ESE visible
24 Oct 3.4 11:39:17 10° S 11:44:18 65° W 11:49:22 10° NNW visible
25 Oct 3.1 11:02:40 10° SSE 11:07:36 54° ENE 11:12:32 10° N visible
25 Oct 6.0 12:44:05 10° SW 12:46:54 15° W 12:49:44 10° WNW visible
